Location: Acton
(51.4942°N, 0.2232°W)
Time: 13:55:33
(UTC+00:00)

Okean 1-7 Rocket - Pass Details

Date: 20 January 2021
Orbit: 615 x 650 km, 82.5° (Epoch: 28 February)

Event Time Altitude Azimuth Distance (km) Brightness Sun altitude
Rises 17:35:38 0° 158° (SSE) 2,946 7.0 -10.0°
Reaches altitude 10° 17:38:06 10° 147° (SSE) 2,045 6.1 -10.4°
Maximum altitude 17:41:58 28° 88° (E) 1,217 4.5 -11.0°
Drops below altitude 10° 17:45:52 10° 30° (NNE) 2,067 5.8 -11.6°
Enters shadow 17:47:07 - 23° (NNE) 2,516 6.3 -11.7°
